This is the latest recevied weather packets stored in our database for station/object KE2HEH. If no packets are shown the sender has not sent any weather packets the latest 10 day(s).
| Time | Temp. | Humidity | Pressure | Rain* | Wind** | Luminosity | Snow |
|---|---|---|---|---|---|---|---|
| 1778136909 | 12.22° C | 90% | 1009.8 hPa | 3.05 mm | - | 0 W/m² | - |
| 1778136606 | 12.22° C | 89% | 1009.3 hPa | 10.16 mm | - | 0 W/m² | - |
| 1778136304 | 12.22° C | 89% | 1009.5 hPa | 10.67 mm | - | 0 W/m² | - |
| 1778136002 | 12.78° C | 88% | 1009.5 hPa | 15.49 mm | - | 0 W/m² | - |
| 1778135698 | 12.78° C | 88% | 1010 hPa | 10.67 mm | - | 0 W/m² | - |
| 1778135396 | 12.78° C | 87% | 1009.8 hPa | 0 mm | - | 0 W/m² | - |
| 1778135093 | 12.78° C | 87% | 1008.5 hPa | 0 mm | - | 0 W/m² | - |
| 1778134790 | 13.33° C | 88% | 1009 hPa | 0 mm | - | 0 W/m² | - |
| 1778134488 | 13.33° C | 88% | 1009 hPa | 0 mm | - | 0 W/m² | - |
| 1778134186 | 13.33° C | 89% | 1008.5 hPa | 0 mm | - | 0 W/m² | - |
| 1778133883 | 13.33° C | 90% | 1009.1 hPa | 0 mm | - | 0 W/m² | - |
| 1778133579 | 13.33° C | 91% | 1009.3 hPa | 0 mm | - | 0 W/m² | - |
| 1778133274 | 13.33° C | 91% | 1008.9 hPa | 0 mm | - | 0 W/m² | - |
| 1778132972 | 13.33° C | 92% | 1008.8 hPa | 0 mm | - | 0 W/m² | - |
| 1778132668 | 13.33° C | 92% | 1008.8 hPa | 0 mm | - | 0 W/m² | - |
| 1778132365 | 13.33° C | 93% | 1008.8 hPa | 0 mm | - | 0 W/m² | - |
| 1778132062 | 13.33° C | 94% | 1008.3 hPa | 0 mm | - | 0 W/m² | - |
| 1778131761 | 13.33° C | 94% | 1008.3 hPa | 0 mm | - | 0 W/m² | - |
| 1778131458 | 13.33° C | 94% | 1008.4 hPa | 0 mm | - | 0 W/m² | - |
| 1778131155 | 13.33° C | 94% | 1008.6 hPa | 0 mm | - | 0 W/m² | - |
| 1778130853 | 13.33° C | 95% | 1008.6 hPa | 0 mm | - | 0 W/m² | - |
| 1778130550 | 13.33° C | 95% | 1008.7 hPa | 0 mm | - | 0 W/m² | - |
| 1778130246 | 13.33° C | 95% | 1008.8 hPa | 0 mm | - | 0 W/m² | - |
| 1778129943 | 13.33° C | 96% | 1008.7 hPa | 0 mm | - | 0 W/m² | - |
| 1778129639 | 13.33° C | 96% | 1008.9 hPa | 0 mm | - | 0 W/m² | - |
* Rain latest hour (hover to see other rain measurements)
** Current wind speed in m/s (hover to see current wind gust speed)